Saint Inigoes, MD

6:28 PM EDT on September 26, 2016 (GMT -0400)
Webster Naval Outlying Field

Weather History for KNUI - May, 2013

Change the Weather History Date:

Wednesday, May 15, 2013

  Actual Average (KNHK) Record (KNHK)
Temperature  
Mean Temperature 72 °F -  
Max Temperature 84 °F 72 °F 89 °F (1983)
Min Temperature 60 °F 55 °F 46 °F (1984)
Cooling Degree Days 7    
Growing Degree Days 22 (Base 50)    
Moisture  
Dew Point 53 °F    
Average Humidity 53    
Maximum Humidity 64    
Minimum Humidity 44    
Precipitation  
Precipitation 0.00 in - - ()
Sea Level Pressure  
Sea Level Pressure 29.88 in    
Wind  
Wind Speed 9 mph (SSW)    
Max Wind Speed 14 mph    
Max Gust Speed 21 mph    
Averages and records for this station are not official NWS values.
T = Trace of Precipitation, MM = Missing Value Source: NWS Daily Summary

Daily Weather History Graph

Daily Weather History Graph

Search for Another Location

Airport or City:

Trip Planner

Search our weather history database for the weather conditions in past years. The results will help you decide how hot, cold, wet, or windy it might be!

Date:

Astronomy

May. 15, 2013 Rise Set
Actual Time 5:54 AM EDT 8:09 PM EDT
Civil Twilight 5:25 AM EDT 8:39 PM EDT
Nautical Twilight 4:48 AM EDT 9:16 PM EDT
Astronomical Twilight 4:09 AM EDT 9:55 PM EDT
Moon 10:27 AM EDT (5/15) No Moon Set
Length of Visible Light 15h 14m
Length of Day
14h 15m
Waxing Crescent, 26% of the Moon is Illuminated
May 15
Waxing Crescent
May 18
First Quarter
May 25
Full
May 31
Last Quarter
Jun 8
New

Hourly Weather History & Observations

Time (EDT) Temp. Heat Index Dew Point Humidity Pressure Visibility Wind Dir Wind Speed Gust Speed Precip Events Conditions
12:53 AM 60.1 °F - 48.0 °F 64% 30.06 in - SSE 9.2 mph - N/A   Scattered Clouds
1:53 AM 61.0 °F - 46.9 °F 60% 30.04 in - SSE 8.1 mph - N/A   Overcast
2:53 AM 61.0 °F - 46.0 °F 58% 30.01 in - SSE 8.1 mph - N/A   Mostly Cloudy
3:53 AM 61.0 °F - 45.0 °F 56% 29.99 in - SSE 8.1 mph - N/A   Mostly Cloudy
4:53 AM 61.0 °F - 44.1 °F 54% 29.97 in - South 9.2 mph - N/A   Clear
5:53 AM 60.1 °F - 44.1 °F 55% 29.98 in - South 8.1 mph - N/A   Clear
6:53 AM 61.0 °F - 45.0 °F 56% 29.98 in - South 8.1 mph - N/A   Clear
7:53 AM 60.1 °F - 45.0 °F 57% 29.97 in - SSW 10.4 mph - N/A   Clear
8:53 AM 64.0 °F - 46.0 °F 52% 29.96 in - SSW 10.4 mph - N/A   Clear
9:53 AM 64.9 °F - 48.0 °F 54% 29.97 in - WSW 6.9 mph - N/A   Partly Cloudy
10:53 AM 68.0 °F - 48.9 °F 50% 29.95 in - SSW 9.2 mph - N/A   Clear
11:53 AM 70.0 °F - 51.1 °F 51% 29.90 in - South 10.4 mph - N/A   Clear
12:53 PM 72.0 °F - 54.0 °F 53% 29.88 in - SSW 10.4 mph - N/A   Clear
1:53 PM 78.1 °F - 57.0 °F 48% 29.88 in - SSW 10.4 mph - N/A   Clear
2:53 PM 80.1 °F 80.6 °F 57.9 °F 47% 29.82 in - SSE 11.5 mph - N/A   Clear
3:53 PM 84.0 °F 84.0 °F 60.1 °F 44% 29.81 in - South 9.2 mph - N/A   Clear
4:53 PM 84.0 °F 84.0 °F 60.1 °F 44% 29.77 in - South 13.8 mph - N/A   Clear
5:53 PM 82.9 °F 83.3 °F 61.0 °F 47% 29.74 in - SSW 10.4 mph - N/A   Clear
6:53 PM 82.0 °F 82.4 °F 60.1 °F 47% 29.72 in - SSW 12.7 mph 20.7 mph N/A   Clear
7:53 PM 80.1 °F 80.9 °F 60.1 °F 50% 29.73 in - SSW 9.2 mph - N/A   Clear
8:53 PM 78.1 °F - 60.1 °F 54% 29.73 in - SW 10.4 mph 16.1 mph N/A   Clear
9:53 PM 78.1 °F - 60.1 °F 54% 29.75 in - SW 13.8 mph - N/A   Clear
10:53 PM 77.0 °F - 61.0 °F 58% 29.76 in - SW 12.7 mph - N/A   Clear
11:53 PM 75.9 °F - 61.0 °F 60% 29.76 in - WSW 9.2 mph - N/A   Clear